This is the latest recevied weather packets stored in our database for station/object KC9NPJ-13. If no packets are shown the sender has not sent any weather packets the latest 10 day(s).
| Time | Temp. | Humidity | Pressure | Rain* | Wind** | Luminosity | Snow |
|---|---|---|---|---|---|---|---|
| 1777682657 | 11.67° C | 64% | 1017.7 hPa | 0 mm | - | - | - |
| 1777682357 | 12.22° C | 65% | 1017.6 hPa | 0 mm | - | - | - |
| 1777682057 | 12.22° C | 59% | 1017.5 hPa | 0 mm | - | - | - |
| 1777681757 | 12.78° C | 60% | 1017.5 hPa | 0 mm | - | - | - |
| 1777681457 | 12.78° C | 58% | 1017.3 hPa | 0 mm | - | - | - |
| 1777681157 | 13.33° C | 56% | 1017.3 hPa | 0 mm | - | - | - |
| 1777680857 | 13.33° C | 58% | 1017.2 hPa | 0 mm | - | - | - |
| 1777680557 | 13.33° C | 56% | 1017.1 hPa | 0 mm | - | - | - |
| 1777680257 | 13.89° C | 54% | 1017 hPa | 0 mm | - | - | - |
| 1777679957 | 13.89° C | 55% | 1016.9 hPa | 0 mm | - | - | - |
| 1777679657 | 13.89° C | 54% | 1016.8 hPa | 0 mm | - | - | - |
| 1777679357 | 13.89° C | 51% | 1016.7 hPa | 0 mm | - | - | - |
| 1777679057 | 14.44° C | 54% | 1016.7 hPa | 0 mm | - | - | - |
| 1777678757 | 14.44° C | 49% | 1016.7 hPa | 0 mm | - | - | - |
| 1777678460 | 14.44° C | 48% | 1016.7 hPa | 0 mm | - | - | - |
| 1777678157 | 14.44° C | 49% | 1016.5 hPa | 0 mm | - | - | - |
| 1777677857 | 14.44° C | 51% | 1016.4 hPa | 0 mm | - | - | - |
| 1777677557 | 14.44° C | 50% | 1016.4 hPa | 0 mm | - | - | - |
| 1777677257 | 14.44° C | 49% | 1016.5 hPa | 0 mm | - | - | - |
| 1777676957 | 14.44° C | 49% | 1016.4 hPa | 0 mm | - | - | - |
| 1777676657 | 15° C | 51% | 1016.6 hPa | 0 mm | - | - | - |
| 1777676357 | 15° C | 48% | 1016.7 hPa | 0 mm | - | - | - |
| 1777676057 | 15° C | 48% | 1016.7 hPa | 0 mm | - | - | - |
| 1777675757 | 15° C | 49% | 1016.8 hPa | 0 mm | - | - | - |
| 1777675457 | 15° C | 45% | 1016.9 hPa | 0 mm | - | - | - |
* Rain latest hour (hover to see other rain measurements)
** Current wind speed in m/s (hover to see current wind gust speed)